Dublin, Ireland

2:48 PM IST on August 29, 2016 (GMT +0100)
Dublin International

Weather History for EIDW - June, 2012

Change the Weather History Date:

Monday, June 4, 2012

  Actual Average Record
Temperature  
Mean Temperature 50 °F -  
Max Temperature 56 °F 63 °F 69 °F (2006)
Min Temperature 43 °F 50 °F 39 °F (2013)
Degree Days  
Heating Degree Days 16    
Moisture  
Dew Point 41 °F    
Average Humidity 71    
Maximum Humidity 100    
Minimum Humidity 38    
Precipitation  
Precipitation 0.00 in 0.07 in - ()
Sea Level Pressure  
Sea Level Pressure 30.04 in    
Wind  
Wind Speed 6 mph ()    
Max Wind Speed 11 mph    
Max Gust Speed -    
Visibility 6.5 miles    
Events      
Averages and records for this station are not official NWS values.
T = Trace of Precipitation, MM = Missing Value Source: Averaged Metar Reports

Daily Weather History Graph

Daily Weather History Graph

Search for Another Location

Airport or City:

Trip Planner

Search our weather history database for the weather conditions in past years. The results will help you decide how hot, cold, wet, or windy it might be!

Date:

Astronomy

Jun. 04, 2012 Rise Set
Actual Time 5:00 AM IST 9:47 PM IST
Civil Twilight 4:10 AM IST 10:37 PM IST
Nautical Twilight 2:46 AM IST 12:02 AM IST
Astronomical Twilight Sun does not set Sun does not set
Moon 9:59 PM IST (6/4) 4:56 AM IST (6/4)
Length of Visible Light 18h 27m
Length of Day
16h 46m
Full, 100% of the Moon is Illuminated
Jun 4
Full
Jun 4
Full
Jun 11
Last Quarter
Jun 19
New
Jun 27
First Quarter

Hourly Weather History & Observations

Time (IST) Temp. Windchill Dew Point Humidity Pressure Visibility Wind Dir Wind Speed Gust Speed Precip Events Conditions
12:00 AM 48.2 °F - 44.6 °F 87% 29.95 in 6.2 mi ENE 5.8 mph - N/A   Mostly Cloudy
12:30 AM 46.4 °F 43.5 °F 42.8 °F 87% 29.95 in 6.2 mi NE 5.8 mph - N/A   Mostly Cloudy
1:00 AM 46 °F - 43 °F 84% 29.98 in 12 mi ENE 4.5 mph - -   Partly Cloudy
1:00 AM 46.4 °F 44.3 °F 42.8 °F 87% 29.98 in 6.2 mi ENE 4.6 mph - N/A   Mostly Cloudy
1:30 AM 42.8 °F - 42.8 °F 100% 29.98 in 6.2 mi Calm Calm - N/A   Mostly Cloudy
2:00 AM 44.6 °F 43.1 °F 42.8 °F 93% 29.98 in 6.2 mi North 3.5 mph - N/A   Mostly Cloudy
2:30 AM 44.6 °F - 42.8 °F 93% 29.98 in 6.2 mi Calm Calm - N/A   Mostly Cloudy
3:00 AM 44.6 °F - 42.8 °F 93% 29.98 in 6.2 mi Calm Calm - N/A   Mostly Cloudy
3:30 AM 44.6 °F - 44.6 °F 100% 29.98 in 6.2 mi Calm Calm - N/A   Mostly Cloudy
4:00 AM 44.6 °F 43.1 °F 42.8 °F 93% 29.98 in 6.2 mi NW 3.5 mph - N/A   Mostly Cloudy
4:30 AM 44.6 °F 42.2 °F 42.8 °F 93% 29.98 in 6.2 mi NW 4.6 mph - N/A   Mostly Cloudy
5:00 AM 42.8 °F 41.1 °F 42.8 °F 100% 29.98 in 6.2 mi NNW 3.5 mph - N/A   Mostly Cloudy
5:30 AM 44.6 °F 42.2 °F 44.6 °F 100% 30.01 in 6.2 mi NNW 4.6 mph - N/A   Mostly Cloudy
6:00 AM 46.4 °F 43.5 °F 44.6 °F 93% 30.01 in 6.2 mi NNW 5.8 mph - N/A   Mostly Cloudy
6:30 AM 48.2 °F - 46.4 °F 93% 30.01 in 6.2 mi NNW 5.8 mph - N/A   Scattered Clouds
7:00 AM 48 °F - 45 °F 87% 30.04 in 16 mi North 6.7 mph - -   Partly Cloudy
7:00 AM 48.2 °F - 44.6 °F 87% 30.04 in 6.2 mi North 5.8 mph - N/A   Scattered Clouds
7:30 AM 50.0 °F - 44.6 °F 82% 30.04 in 6.2 mi NNE 5.8 mph - N/A   Scattered Clouds
8:00 AM 50.0 °F - 46.4 °F 87% 30.04 in 6.2 mi ENE 10.4 mph - N/A   Scattered Clouds
8:30 AM 51.8 °F - 41.0 °F 67% 30.04 in 6.2 mi ENE 9.2 mph - N/A   Scattered Clouds
9:00 AM 51.8 °F - 42.8 °F 71% 30.04 in 6.2 mi ENE 10.4 mph - N/A   Scattered Clouds
9:30 AM 53.6 °F - 42.8 °F 67% 30.06 in 6.2 mi ENE 9.2 mph - N/A   Scattered Clouds
10:00 AM 53.6 °F - 44.6 °F 72% 30.06 in 6.2 mi ENE 10.4 mph - N/A   Scattered Clouds
10:30 AM 53.6 °F - 42.8 °F 67% 30.06 in 6.2 mi ENE 9.2 mph - N/A   Scattered Clouds
11:00 AM 53.6 °F - 42.8 °F 67% 30.06 in 6.2 mi ENE 9.2 mph - N/A   Scattered Clouds
11:30 AM 53.6 °F - 42.8 °F 67% 30.06 in 6.2 mi ENE 10.4 mph - N/A   Scattered Clouds
12:00 PM 53.6 °F - 39.2 °F 58% 30.06 in 6.2 mi East 9.2 mph - N/A   Partly Cloudy
12:30 PM 53.6 °F - 41.0 °F 62% 30.06 in 6.2 mi East 10.4 mph - N/A   Partly Cloudy
1:00 PM 55 °F - 41 °F 49% 30.09 in 37 mi East 11.2 mph - -   Scattered Clouds
1:00 PM 55.4 °F - 41.0 °F 58% 30.06 in 6.2 mi East 10.4 mph - N/A   Partly Cloudy
1:30 PM 53.6 °F - 39.2 °F 58% 30.06 in 6.2 mi East 5.8 mph - N/A   Partly Cloudy
2:00 PM 55.4 °F - 41.0 °F 58% 30.09 in 6.2 mi East 6.9 mph - N/A   Partly Cloudy
2:30 PM 55.4 °F - 41.0 °F 58% 30.09 in 6.2 mi SE 8.1 mph - N/A   Scattered Clouds
3:00 PM 55.4 °F - 37.4 °F 51% 30.09 in 6.2 mi SE 6.9 mph - N/A   Scattered Clouds
3:30 PM 55.4 °F - 35.6 °F 47% 30.09 in 6.2 mi SE 5.8 mph - N/A   Scattered Clouds
4:00 PM 55.4 °F - 39.2 °F 54% 30.09 in 6.2 mi East 6.9 mph - N/A   Scattered Clouds
4:30 PM 55.4 °F - 41.0 °F 58% 30.06 in 6.2 mi East 9.2 mph - N/A   Scattered Clouds
5:00 PM 55.4 °F - 37.4 °F 51% 30.06 in 6.2 mi East 9.2 mph - N/A   Scattered Clouds
5:30 PM 55.4 °F - 37.4 °F 51% 30.06 in 6.2 mi ESE 9.2 mph - N/A   Scattered Clouds
6:00 PM 55.4 °F - 39.2 °F 54% 30.06 in 6.2 mi ESE 10.4 mph - N/A   Scattered Clouds
6:30 PM 53.6 °F - 33.8 °F 47% 30.06 in 6.2 mi SSE 10.4 mph - N/A   Scattered Clouds
7:00 PM 54 °F - 36 °F 38% 30.08 in 44 mi SE 11.2 mph - -   Scattered Clouds
7:00 PM 53.6 °F - 35.6 °F 51% 30.06 in 6.2 mi SE 10.4 mph - N/A   Partly Cloudy
7:30 PM 53.6 °F - 33.8 °F 47% 30.06 in 6.2 mi SE 10.4 mph - N/A   Partly Cloudy
8:00 PM 51.8 °F - 33.8 °F 50% 30.06 in 6.2 mi SE 8.1 mph - N/A   Partly Cloudy
8:26 PM 51.8 °F - 33.8 °F 50% 30.06 in 6.2 mi SE 8.1 mph - N/A   Partly Cloudy
8:30 PM 50.0 °F - 37.4 °F 62% 30.06 in 6.2 mi SE 8.1 mph - N/A   Partly Cloudy
9:00 PM 50.0 °F - 39.2 °F 66% 30.06 in 6.2 mi SE 8.1 mph - N/A   Mostly Cloudy
9:30 PM 50.0 °F - 41.0 °F 71% 30.04 in 6.2 mi SE 6.9 mph - N/A   Mostly Cloudy
10:00 PM 48.2 °F - 41.0 °F 76% 30.04 in 6.2 mi ESE 6.9 mph - N/A   Mostly Cloudy
10:30 PM 48.2 °F - 42.8 °F 82% 30.04 in 6.2 mi SE 9.2 mph - N/A   Mostly Cloudy
11:00 PM 48.2 °F - 42.8 °F 82% 30.01 in 6.2 mi SE 10.4 mph - N/A   Mostly Cloudy
11:30 PM 48.2 °F - 42.8 °F 82% 30.01 in 6.2 mi SE 9.2 mph - N/A   Mostly Cloudy